This demonstration page uses our WeatherBlox Daily Observations layout. Learn more.

Left ArrowRight Arrow

39.08367, -84.50855

Hourly Observations for April 17, 2018

Temp ( °F °C ) Dew Point ( °F °C ) Humidity (%) Winds ( mph kmh ) Pressure ( in mb ) Visibility ( mi km ) Precip ( " mm )
12:53 am 00:53 Cloudy 35 1.7 25 -3.9 67 67 W 10 17 30.01 1016 10 16 N/A
1:53 am 01:53 Cloudy 35 1.7 26 -3.3 70 70 W 14 22 30.00 1016 10 16 N/A
2:53 am 02:53 Cloudy 34 1.1 26 -3.3 73 73 WSW 13 20 29.98 1015 10 16 N/A
3:53 am 03:53 Cloudy 35 1.7 26 -3.3 70 70 SW 10 17 29.98 1015 10 16 N/A
4:53 am 04:53 Cloudy 35 1.7 26 -3.3 70 70 SW 13 20 29.96 1015 10 16 N/A
5:53 am 05:53 Cloudy 35 1.7 27 -2.8 72 72 SW 12 19 29.96 1015 10 16 N/A
6:53 am 06:53 Cloudy 35 1.7 27 -2.8 72 72 WSW 13 20 29.95 1014 10 16 N/A
7:53 am 07:53 Cloudy 36 2.2 27 -2.8 70 70 W 14 22 29.96 1015 10 16 N/A
8:53 am 08:53 Cloudy 36 2.2 27 -2.8 70 70 WSW 12 19 29.96 1015 10 16 N/A
9:53 am 09:53 Cloudy 36 2.2 27 -2.8 70 70 W 12 19 29.96 1014 10 16 N/A
10:37 am 10:37 Cloudy 37 2.8 27 -2.8 67 67 W 13 20 29.94 1014 10 16 N/A
10:53 am 10:53 Cloudy 37 2.8 28 -2.2 70 70 W 15 24 29.94 1014 10 16 N/A
11:53 am 11:53 Cloudy 39 3.9 29 -1.7 67 67 W 15 24 29.94 1014 10 16 N/A
12:53 pm 12:53 Mostly Cloudy 42 5.6 31 -0.6 65 65 WNW 17 28 29.93 1014 10 16 N/A
1:53 pm 13:53 Mostly Cloudy 44 6.7 30 -1.1 58 58 W 20 31 29.91 1013 10 16 N/A
2:53 pm 14:53 Partly Cloudy 46 7.8 31 -0.6 56 56 WNW 12 19 29.91 1013 10 16 N/A
3:53 pm 15:53 Mostly Sunny 48 8.9 31 -0.6 52 52 WNW 14 22 29.90 1013 10 16 N/A
4:53 pm 16:53 Mostly Sunny 50 10 32 undefined 50 50 WNW 10 17 29.89 1012 10 16 N/A
5:38 pm 17:38 Mostly Sunny 50 10 32 undefined 50 50 NW 10 17 29.91 1013 10 16 N/A
5:53 pm 17:53 Sunny 50 10 32 undefined 50 50 VRB 7 11 29.88 1012 10 16 N/A
6:53 pm 18:53 Sunny 49 9.4 32 undefined 52 52 N 9 15 29.89 1012 10 16 N/A
7:53 pm 19:53 Sunny 46 7.8 31 -0.6 56 56 N 8 13 29.89 1012 10 16 N/A
8:53 pm 20:53 Clear 43 6.1 30 -1.1 60 60 N 7 11 29.91 1013 10 16 N/A
9:53 pm 21:53 Clear 39 3.9 31 -0.6 73 73 NE 6 9 29.93 1013 10 16 N/A
10:53 pm 22:53 Clear 38 3.3 30 -1.1 73 73 NNE 6 9 29.94 1014 10 16 N/A
11:53 pm 23:53 Mostly Clear 37 2.8 29 -1.7 73 73 NE 7 11 29.95 1014 10 16 N/A

Powered by AerisWeather